• MPC Preparation (Info)

  • MPEC 2015-T55 : 2015 TX24

    The following Minor Planet Electronic Circular may be linked-to from your own Web pages, but must not otherwise be redistributed electronically.

    A form allowing access to any MPEC is at the bottom of this page.


    Read MPEC 2015-T54 Read MPEC 2015-T56


    M.P.E.C. 2015-T55                                Issued 2015 Oct. 11, 14:11 UT
    
         The Minor Planet Electronic Circulars contain information on unusual
             minor planets and routine data on comets.  They are published
        on behalf of Division F of the International Astronomical Union by the
              Minor Planet Center, Smithsonian Astrophysical Observatory,
                              Cambridge, MA 02138, U.S.A.
    
                 Prepared using the Tamkin Foundation Computer Network
    
                                  MPC@CFA.HARVARD.EDU
                URL https://www.minorplanetcenter.net/    ISSN 1523-6714
    
                                       2015 TX24
    
    Observations:
         K15T24X* C2015 10 08.43439 03 59 29.455+18 44 07.07         21.5 wLET055F51
         K15T24X  C2015 10 08.44619 03 59 31.158+18 44 15.78         21.4 wLET055F51
         K15T24X  C2015 10 08.45797 03 59 32.843+18 44 24.61         21.3 wLET055F51
         K15T24X  C2015 10 08.46972 03 59 34.511+18 44 33.42         21.4 wLET055F51
         K15T24X _C2015 10 09.60751604 02 31.461+18 58 47.35         21.1 RtET055568
         K15T24X _C2015 10 09.60863304 02 31.635+18 58 48.21         21.0 RtET055568
         K15T24X _C2015 10 09.60969704 02 31.797+18 58 49.00         21.1 RtET055568
         K15T24X KC2015 10 10.37422804 04 40.95 +19 08 57.7          21.7 VuET055H21
         K15T24X KC2015 10 10.38723004 04 43.09 +19 09 08.2          21.2 VuET055H21
         K15T24X KC2015 10 10.40060404 04 45.30 +19 09 19.4          21.2 VuET055H21
         K15T24X KC2015 10 11.39991 04 07 47.22 +19 23 48.8          20.7 RoET055291
         K15T24X KC2015 10 11.40188 04 07 47.59 +19 23 50.6          20.9 RoET055291
         K15T24X KC2015 10 11.40383 04 07 47.91 +19 23 52.3          20.7 RoET055291
    
    Observer details:
    291 LPL/Spacewatch II.  Observer R. A. Mastaler.  1.8-m f/2.7 reflector + CCD.
    568 Mauna Kea.  Observers R. J. Wainscoat, L. Wells.  Measurers M. Micheli,
        R. Weryk.  3.6-m Canada-France-Hawaii Telescope + CCD.
    F51 Pan-STARRS 1, Haleakala.  Observers B. Gibson, T. Goggia, N. Primak,
        A. Schultz, M. Willman.  Measurers K. Chambers, S. Chastel, L. Denneau,
        H. Flewelling, M. Huber, E. Lilly, E. Magnier, R. Wainscoat, C. Waters,
        R. Weryk, L. Buzzi, T. Vorobjov.  1.8-m Ritchey-Chretien + CCD, 1.8-m
        f/4.4 Ritchey-Chretien + CCD.
    H21 Astronomical Research Observatory, Westfield.  Observer R. Holmes.
        Measurers S. Foglia, L. Buzzi, T. Linder, R. Holmes.  0.81-m f/4.0
        astrograph + CCD.
    
    Orbital elements:
    2015 TX24                                           PHA, Earth MOID = 0.0103 AU
    Epoch 2016 Jan. 13.0 TT = JDT 2457400.5                 MPC
    M  10.29794              (2000.0)            P               Q
    n   0.28168427     Peri.  126.98872     -0.93738048     -0.34349328
    a   2.3047703      Node    33.03382     +0.27637142     -0.83433918
    e   0.8748360      Incl.    6.07672     +0.21198272     -0.43115020
    P   3.50           H   21.4           G   0.15           U   9
    Residuals in seconds of arc
    151008 F51  0.1-  0.0     151009 568  0.2+  0.1-    151011 291  0.0   0.1+
    151008 F51  0.1+  0.1-    151009 568  0.2+  0.2-    151011 291  0.2+  0.1+
    151008 F51  0.1+  0.0     151010 H21  0.1+  0.2-    151011 291  0.2-  0.1+
    151008 F51  0.1-  0.1+    151010 H21  0.1-  0.4-
    151009 568  0.2+  0.1-    151010 H21  0.2-  0.2-
    
    Ephemeris:
    2015 TX24                a,e,i = 2.30, 0.87, 6                   q = 0.2885
    Date    TT    R. A. (2000) Decl.     Delta      r     Elong.  Phase     V
    2015 09 11    03 17 09.1 +15 33 03   0.9850  1.6956   116.7    32.0    23.9
    ...
    2015 09 26    03 36 33.2 +16 57 07   0.6623  1.4945   126.5    32.7    22.8
    ...
    2015 10 04    03 49 47.4 +17 58 04   0.4983  1.3797   131.0    33.2    22.0
    ...
    2015 10 10    04 03 36.9 +19 03 59   0.3794  1.2897   133.5    34.2    21.3
    2015 10 11    04 06 32.4 +19 17 58   0.3599  1.2743   133.8    34.5    21.1
    2015 10 12    04 09 43.6 +19 33 10   0.3406  1.2589   134.0    34.8    21.0
    ...
    2015 10 18    04 38 16.7 +21 42 53   0.2277  1.1638   133.0    38.8    20.1
    ...
    2015 10 26    06 57 02.0 +27 26 24   0.09688 1.0304   109.3    65.6    18.7
    ...
    2015 11 10    14 18 21.7 -07 37 58   0.2425  0.7567    13.5   162.3    29.5
    
    A. U. Tomatic                (C) Copyright 2015 MPC           M.P.E.C. 2015-T55
    

    Read MPEC 2015-T54 Read MPEC 2015-T56


    MPEC number:

    Enter an MPEC number in one of the following forms:

    • 1997-B01 (the full form)
    • J97B01 (the packed version of the full form)
    • B01 (the abbreviated form)